Location: Olda
(45.8833°N, 9.5500°E)
Time: 17:26:30
(UTC+00:00)

Cosmos 2278 Rocket - Pass Details

Date: 03 March 2021
Orbit: 841 x 845 km, 71.0° (Epoch: 11 April)

Event Time Altitude Azimuth Distance (km) Brightness Sun altitude
Rises 20:24:32 0° 332° (NNW) 3,414 6.1 -33.4°
Reaches altitude 10° 20:27:00 10° 330° (NNW) 2,475 5.3 -33.8°
Enters shadow 20:30:48 43° 318° (NW) 1,173 3.2 -34.3°
